Wind_Speed
20 19 20 20 19 20 20 20 21 21 21 20 20 19 19 19 18 18 17 17 17 16 16 15 15 14 14 13 13 12 11 11 11 11 12 12 13 13 13 13 13 13 12 12 12 12 12 12 12 12 12 11 12 12 12 12 12 12 12 12 12 12 13
19 19 20 19 19 20 21 21 22 23 22 21 21 20 20 19 19 18 17 17 16 16 16 15 15 15 15 14 14 13 13 13 13 12 12 12 12 13 13 13 13 13 13 13 12 12 13 13 13 13 13 12 12 13 12 12 12 12 12 12 12 12 13
19 20 20 19 20 21 22 22 23 23 22 21 21 20 20 19 19 18 17 16 16 15 15 15 15 15 15 15 15 14 14 14 14 13 13 12 12 13 13 14 14 14 14 14 14 13 14 14 14 14 13 13 12 12 12 12 12 12 12 12 13 13 13
20 22 21 21 22 23 22 23 23 22 22 21 21 20 20 19 18 17 16 15 14 14 14 14 14 14 14 15 15 15 15 15 14 14 14 13 12 13 14 14 14 14 15 15 14 14 14 14 14 14 13 13 12 12 12 12 12 12 13 13 13 13 14
22 24 24 23 23 24 23 23 23 22 21 21 20 20 19 18 18 16 14 13 12 11 11 12 12 13 14 15 16 16 16 16 15 15 14 14 13 13 14 14 14 14 15 14 14 14 14 14 14 14 14 13 13 13 14 14 14 14 14 14 14 14 14
22 24 27 27 26 26 24 23 23 22 21 20 19 20 20 19 18 16 13 11 10 10 10 11 13 14 15 16 17 17 17 16 15 15 14 14 14 14 14 14 14 14 14 14 14 14 14 15 15 16 16 16 16 16 16 16 16 16 16 15 15 15 16
17 19 23 27 27 26 23 23 23 22 21 20 20 21 21 20 18 16 14 12 12 11 11 12 13 14 15 16 17 17 17 17 16 16 15 15 15 15 15 15 15 15 15 15 14 14 14 14 15 16 17 17 17 17 17 17 17 17 17 16 16 16 16
10 11 14 19 22 22 21 22 23 22 21 20 21 22 22 20 19 17 16 15 13 12 12 12 12 14 15 16 17 17 17 17 17 17 16 16 16 16 16 16 16 16 15 15 14 14 14 14 15 16 17 17 18 18 18 18 18 18 17 16 16 16 16
7 8 11 16 18 19 20 21 22 21 21 20 21 21 21 20 19 18 17 16 14 13 13 13 14 15 15 16 17 18 18 17 17 16 16 16 16 16 16 17 16 16 15 15 14 14 14 14 15 16 17 17 17 17 17 17 17 17 17 17 16 16 16
9 9 11 14 16 18 19 19 20 20 19 19 20 20 20 19 18 18 17 16 15 14 14 14 15 15 16 16 17 17 17 17 16 15 15 15 15 15 15 15 15 15 15 14 14 14 14 15 16 16 17 17 17 17 18 17 18 18 17 17 17 17 17
11 11 10 11 14 16 17 18 18 18 17 18 18 19 18 18 17 18 17 16 15 15 14 14 15 15 15 16 16 17 17 17 16 15 14 14 14 14 14 15 15 15 15 15 15 15 15 16 17 17 17 17 18 18 18 18 18 19 18 18 18 18 17
14 13 12 11 13 15 16 16 16 16 16 17 18 18 17 17 17 17 16 16 15 14 14 14 14 15 15 15 15 16 17 17 17 16 15 15 15 15 15 15 16 16 16 16 15 16 16 17 18 18 18 18 19 19 19 19 19 19 18 18 18 18 18
15 15 14 13 14 15 15 15 15 16 17 18 18 18 18 17 17 17 17 16 16 15 14 15 15 15 15 15 16 16 17 17 17 17 17 17 16 16 17 17 17 17 16 16 16 17 17 18 18 19 19 19 19 19 19 19 19 19 18 18 18 19 19
15 16 17 16 16 15 15 14 15 16 17 18 18 17 17 17 17 17 17 18 18 18 18 17 17 16 16 16 17 18 17 17 17 18 18 18 19 19 19 19 19 18 18 18 18 18 18 19 19 19 19 19 19 19 18 18 18 18 18 19 19 20 20
16 17 18 18 17 16 15 14 15 16 17 17 16 16 16 17 18 18 19 20 21 21 20 19 19 19 18 19 19 19 18 18 18 18 18 19 20 20 20 21 20 20 20 20 19 19 20 20 20 19 19 19 19 18 18 18 18 19 19 20 20 21 21
17 17 18 18 18 17 16 15 16 16 16 16 16 16 17 18 18 18 19 20 21 20 19 18 19 20 20 20 20 20 20 19 18 18 19 19 20 20 21 22 22 22 22 21 21 21 21 21 21 20 20 20 19 19 18 19 19 20 21 21 21 22 22
19 20 20 20 19 18 17 18 18 17 17 17 17 17 16 17 17 17 18 18 18 18 17 18 19 20 21 20 20 20 20 20 20 19 19 19 20 21 22 22 23 23 23 23 22 22 22 23 22 22 21 21 21 20 20 20 21 21 22 22 22 23 23
20 22 22 22 21 20 19 19 19 18 18 18 18 18 17 17 17 17 17 17 18 18 18 19 20 21 22 22 21 21 21 21 21 20 20 20 21 22 22 23 23 23 23 23 23 23 23 24 23 23 22 22 22 22 22 22 22 23 23 24 24 24 25
21 23 23 23 23 22 20 20 20 19 19 19 19 19 19 20 19 17 17 17 18 19 19 20 20 20 21 22 22 23 23 22 21 21 21 21 22 23 23 23 23 23 23 23 23 23 24 24 24 23 23 23 23 23 23 23 23 23 24 24 25 25 25
21 22 22 22 23 23 22 21 20 20 21 21 21 21 21 20 19 18 17 18 18 19 19 19 19 20 21 22 22 22 23 23 22 21 21 21 22 23 23 24 24 23 23 23 23 24 24 24 24 24 24 24 24 24 24 23 23 24 24 25 25 25 25
19 21 22 21 21 23 23 22 22 22 22 22 22 23 22 21 19 18 18 19 18 18 18 19 19 20 22 22 22 22 23 24 22 20 20 20 22 23 23 24 24 24 24 24 24 24 24 24 25 25 25 24 24 24 24 24 24 24 24 24 24 24 24
19 20 21 21 22 23 23 23 23 23 23 23 23 23 22 21 20 19 19 18 18 18 19 19 20 20 21 21 21 22 22 23 22 20 19 20 21 22 23 24 24 25 25 25 25 25 24 25 25 26 26 26 26 25 25 24 23 23 22 22 22 23 23
19 19 19 22 24 24 25 25 25 24 23 23 23 22 21 20 19 19 19 18 18 18 19 19 19 18 19 20 20 21 22 22 21 20 19 20 20 21 22 23 24 25 25 26 26 26 26 25 26 26 26 27 26 26 24 24 23 23 22 22 23 23 24
20 19 20 21 23 26 28 28 27 25 24 23 21 20 20 20 19 19 18 17 16 17 17 17 16 15 17 18 20 20 20 19 19 18 18 19 19 20 22 23 24 25 26 26 27 27 27 27 26 26 26 26 26 25 25 25 25 25 24 24 24 25 25
20 20 20 21 25 30 31 29 28 26 23 22 21 20 20 20 19 18 17 16 15 15 14 13 12 12 13 15 16 16 15 15 15 16 16 16 17 19 21 22 24 25 26 26 27 28 28 27 27 27 27 27 27 26 27 27 27 27 27 27 27 27 27
18 19 19 20 25 30 29 27 27 26 22 21 21 21 21 20 19 19 18 18 17 16 15 13 12 11 12 13 14 14 13 14 14 15 15 15 16 17 20 22 23 25 26 26 27 28 28 29 29 29 29 29 29 29 29 29 29 29 29 29 29 29 29
19 19 20 20 21 23 24 22 23 23 22 21 21 22 22 21 20 20 20 20 20 19 18 16 15 15 15 15 15 15 15 16 16 16 16 17 17 19 20 21 23 24 26 26 27 28 29 30 30 31 31 32 32 32 32 32 31 32 32 32 32 32 31
21 20 20 20 19 19 20 20 20 22 23 23 23 23 23 23 22 21 21 22 22 22 20 19 18 18 18 18 17 17 18 18 19 19 19 20 20 22 22 23 24 25 26 27 28 29 30 32 33 33 34 35 35 35 35 35 34 34 34 34 35 35 34
21 21 21 21 21 20 20 20 21 22 23 24 25 24 24 24 24 24 24 24 24 24 23 22 21 20 20 20 19 19 20 21 21 22 23 24 25 26 26 26 27 28 28 28 29 30 31 33 34 35 36 37 37 38 37 37 37 36 36 36 37 37 37
21 21 21 22 22 22 22 22 22 23 24 26 26 26 26 26 27 27 27 27 27 27 26 25 24 22 22 22 23 23 23 23 24 25 27 28 30 31 31 31 31 31 32 32 32 32 33 34 36 37 38 39 40 40 39 39 39 38 37 38 40 41 42
22 22 23 23 23 23 23 23 24 25 26 27 28 28 29 29 30 30 30 29 30 30 29 29 28 26 25 25 25 26 26 27 27 28 29 31 32 34 35 35 35 35 35 36 36 36 37 37 39 40 41 42 42 42 41 41 41 40 39 41 44 45 46
24 24 24 25 25 25 26 26 27 27 28 29 30 31 31 31 32 33 33 33 33 33 32 32 31 31 30 29 29 29 30 31 31 31 31 32 33 34 36 37 38 38 38 38 39 40 40 42 43 44 44 43 43 43 43 43 44 44 44 45 46 47 48
26 26 26 26 27 28 28 29 30 30 31 32 33 33 34 35 35 36 36 36 36 36 36 36 36 35 35 34 34 34 35 35 35 35 35 34 34 35 37 38 40 40 40 39 40 41 43 44 46 47 46 45 45 46 47 48 49 49 49 48 48 48 49
30 31 31 31 32 32 33 34 34 35 35 36 37 37 38 39 39 40 40 39 38 38 39 39 39 39 39 39 39 39 40 40 39 39 39 38 37 38 39 41 42 42 41 41 41 43 45 46 48 49 50 50 50 50 51 52 52 50 49 49 50 49 50
34 35 36 37 37 37 37 37 38 39 39 40 40 41 41 42 42 42 41 40 39 39 40 40 41 41 42 42 42 42 44 44 43 42 42 42 42 42 42 43 45 45 45 45 44 45 48 49 50 52 51 50 49 49 49 50 50 49 48 48 49 50 51
36 37 38 38 38 38 38 39 39 40 41 41 42 42 42 43 42 42 41 41 40 41 41 42 42 43 43 43 43 43 45 46 46 46 45 45 45 45 45 46 46 47 48 49 49 49 50 50 51 52 51 49 50 51 50 50 50 50 50 49 49 50 51
35 36 36 37 37 38 38 38 38 39 39 40 41 41 42 43 43 43 43 44 44 45 46 47 47 48 48 48 48 48 48 48 49 50 49 49 48 47 47 48 49 49 51 51 51 52 53 51 52 54 54 52 53 54 53 52 52 52 51 50 50 51 52
Wind_Direction
247 245 244 243 241 237 236 238 239 239 237 234 231 230 230 231 231 231 231 230 229 229 229 230 229 230 233 236 238 238 238 237 236 236 238 240 242 244 246 247 249 249 250 252 254 257 259 260 262 265 267 270 271 271 272 274 276 277 279 282 284 286 287
246 241 237 234 233 233 236 239 239 236 234 232 230 230 231 232 233 233 235 235 235 236 237 238 238 237 238 240 241 243 242 241 240 240 241 243 244 246 247 247 248 247 247 247 247 248 251 254 257 258 261 264 267 270 273 276 279 281 283 285 287 288 289
243 237 233 227 226 231 234 236 236 234 231 230 231 231 232 233 235 236 237 238 239 241 241 243 243 244 243 243 244 244 244 244 244 244 245 246 248 249 249 249 249 248 248 247 247 247 249 252 254 255 257 260 264 268 272 274 276 278 279 281 285 288 291
241 237 233 226 226 229 232 234 234 232 231 230 230 231 232 233 235 236 236 237 239 240 242 244 246 248 248 247 247 246 246 246 246 247 248 249 249 250 251 252 251 250 250 249 250 251 252 254 256 257 258 260 262 264 266 269 271 273 274 277 281 284 287
240 238 232 228 229 230 231 233 232 231 229 228 228 230 230 231 230 229 229 229 233 239 244 247 250 252 252 251 250 249 249 249 250 251 251 251 250 249 250 252 252 252 252 253 254 256 258 260 262 263 262 262 262 262 263 265 267 268 269 272 275 278 280
240 240 233 228 226 225 225 228 230 230 228 226 225 226 226 225 223 221 221 228 238 247 252 254 255 256 256 255 254 253 252 252 252 253 253 253 251 250 250 250 251 254 256 258 259 261 263 266 267 268 267 265 264 264 265 266 267 268 268 270 272 275 277
237 236 235 230 225 220 220 225 230 231 230 227 224 222 223 222 220 223 231 241 249 252 253 253 254 255 256 257 257 256 255 253 253 252 252 252 251 250 250 250 253 256 259 262 264 265 266 266 268 268 267 266 267 267 268 269 270 270 270 271 272 273 276
221 218 224 227 224 221 224 230 233 235 233 230 227 225 225 225 230 240 250 253 252 249 250 251 252 254 254 255 255 255 254 253 252 251 250 250 250 250 250 252 254 257 261 263 265 267 267 266 266 266 267 267 268 269 269 270 271 271 271 271 272 274 278
215 217 216 217 222 226 231 235 238 239 237 234 232 231 232 235 243 251 254 252 247 244 247 250 252 253 252 252 253 252 252 250 249 248 248 249 249 251 252 253 255 257 260 263 265 268 268 268 268 268 268 268 269 269 269 270 270 271 271 272 273 275 277
218 224 223 221 225 231 234 237 240 240 238 235 234 235 237 242 248 251 250 246 241 242 245 247 249 250 250 250 250 251 252 251 249 247 248 249 251 253 255 257 260 262 264 265 267 268 268 268 267 268 268 269 269 269 268 269 269 270 271 272 273 274 276
223 220 222 225 229 232 236 239 242 242 238 235 234 237 241 244 247 248 245 241 241 243 245 244 245 247 248 249 250 251 252 252 252 250 250 252 254 257 261 264 267 269 269 270 270 269 269 268 267 268 269 269 269 268 269 269 269 270 271 271 273 275 277
232 224 220 224 231 236 239 242 245 245 242 241 243 244 244 243 244 243 238 237 241 245 247 249 248 248 249 249 250 250 251 251 252 251 251 253 255 258 261 264 267 270 272 273 273 272 271 270 270 270 270 270 269 269 269 269 269 270 270 271 273 275 278
238 231 223 222 228 234 238 242 244 245 246 247 249 248 246 243 242 238 235 237 241 247 255 257 254 252 252 252 251 250 250 250 251 251 252 253 255 257 259 261 264 266 269 270 271 271 270 270 270 270 270 269 268 268 267 268 268 268 268 270 272 274 276
237 237 231 226 226 228 232 237 240 241 243 246 248 249 248 247 244 240 239 241 245 254 262 263 258 255 254 252 252 251 251 251 252 253 255 256 257 259 260 261 262 264 265 266 266 266 265 266 267 267 267 266 265 264 264 264 265 266 267 268 270 272 274
237 235 232 230 229 227 225 229 235 238 239 242 245 247 248 246 244 243 243 246 250 256 261 260 257 254 252 250 249 250 251 253 254 255 257 258 260 261 263 264 265 266 266 265 265 264 262 262 262 263 263 262 260 260 259 260 262 264 266 266 267 269 271
237 233 231 233 233 230 225 225 231 235 237 239 241 244 245 243 242 242 243 246 251 255 258 256 254 252 250 249 248 247 248 249 252 254 256 258 260 262 263 265 266 267 267 267 266 264 262 261 260 259 258 257 257 256 257 258 260 262 265 265 266 268 270
239 237 237 237 233 229 227 225 228 232 235 236 237 239 239 238 238 240 243 248 252 255 255 252 250 249 248 247 247 247 245 243 244 248 253 256 258 260 261 263 266 268 269 269 267 264 262 261 260 258 255 253 252 253 253 255 258 260 263 265 267 268 270
243 241 240 236 231 230 230 227 226 228 231 232 231 231 232 234 237 240 245 251 255 258 256 252 249 248 246 244 245 246 244 239 237 239 245 251 254 257 260 262 264 266 267 268 267 265 263 261 260 259 255 252 251 251 252 253 256 258 261 264 266 268 269
245 243 241 236 231 232 233 230 227 226 227 228 228 228 232 236 238 239 244 250 255 258 259 257 255 251 247 244 246 247 244 240 237 235 238 244 251 255 259 262 263 263 263 264 265 265 264 263 261 259 256 253 252 252 253 254 256 258 260 262 265 267 270
245 243 241 237 233 232 232 232 230 227 227 228 229 231 235 238 237 238 244 250 253 256 258 259 258 254 248 245 246 248 245 242 239 236 236 240 247 253 257 260 261 260 259 259 261 263 264 264 263 260 257 254 253 253 254 254 256 259 262 264 267 269 271
248 242 238 237 236 232 230 231 231 229 229 230 231 234 237 237 236 241 246 250 251 254 257 259 257 253 248 245 246 248 245 241 237 235 235 238 244 251 255 258 259 258 258 258 259 260 261 264 264 263 260 258 256 256 257 258 260 262 265 267 269 270 271
248 245 242 243 241 235 231 231 232 231 231 231 232 234 235 235 237 243 247 248 251 254 258 260 259 254 249 246 247 249 247 243 238 234 233 235 240 248 253 256 258 257 257 257 257 257 257 259 261 263 263 263 263 262 263 263 263 264 264 265 267 268 269
243 246 248 249 245 239 235 232 232 234 233 231 231 232 234 235 240 246 248 250 253 255 256 258 257 253 249 248 251 252 250 246 241 237 234 235 237 243 248 252 254 254 254 255 255 255 255 255 256 258 260 261 262 263 264 264 263 263 263 263 265 266 267
242 244 247 248 246 241 235 231 231 233 232 228 229 232 234 236 242 246 248 249 251 253 254 256 256 253 250 251 253 253 251 249 245 241 236 234 234 237 243 246 248 250 251 252 254 255 255 254 252 252 253 254 255 257 259 261 262 262 261 262 263 264 266
239 239 241 243 243 240 236 231 230 230 226 226 230 231 230 233 239 243 244 245 246 247 249 252 254 254 253 250 248 247 245 243 241 238 235 232 231 233 238 242 245 247 249 252 254 255 254 252 250 249 249 249 250 253 257 260 260 260 260 261 262 263 264
239 238 239 241 241 239 237 236 232 226 224 228 231 228 227 231 235 238 241 244 246 246 248 250 247 246 245 245 246 248 246 242 241 242 244 243 239 236 236 238 242 247 250 251 253 253 252 250 250 250 249 249 250 252 255 257 258 258 258 259 260 261 262
244 243 240 239 238 236 237 239 234 229 230 233 231 228 230 233 234 238 243 246 249 252 256 256 252 247 246 247 250 250 248 247 248 251 254 256 253 249 245 243 242 244 246 249 249 250 250 250 251 250 249 249 251 252 253 253 254 255 256 257 258 258 259
242 240 237 235 235 235 239 242 240 237 238 236 231 231 234 237 240 244 247 250 254 259 262 262 259 253 250 250 250 249 246 247 250 252 255 259 260 258 257 255 252 247 245 246 247 248 249 251 252 251 250 251 252 253 254 255 255 255 256 256 256 256 258
238 237 237 236 236 237 238 240 240 240 239 235 233 236 239 242 245 249 253 256 260 263 265 265 264 261 256 253 251 251 252 253 255 257 260 262 263 263 263 263 261 258 254 250 249 249 250 251 252 252 253 254 254 256 258 260 260 261 262 262 260 258 259
239 240 240 240 241 242 242 242 241 241 239 235 236 240 244 245 247 251 255 259 261 263 264 263 263 263 261 257 253 251 252 254 256 259 263 265 267 267 267 265 263 263 262 259 256 254 254 254 255 255 256 257 258 260 261 262 263 264 266 267 266 264 264
240 242 243 243 244 246 247 248 247 246 244 242 243 245 246 247 247 251 255 259 261 263 264 263 262 261 260 257 251 247 246 248 251 255 260 264 266 267 266 265 263 262 262 261 261 260 260 260 261 261 262 263 263 264 265 266 266 266 265 265 267 268 269
243 244 245 246 247 249 250 251 251 250 250 249 249 249 249 249 250 254 258 261 264 265 266 266 265 263 260 257 252 246 244 245 248 250 253 257 260 262 262 262 263 263 262 262 262 262 264 264 265 266 267 267 267 267 267 268 270 270 269 268 268 269 270
247 247 248 249 251 253 254 255 256 256 256 256 255 255 254 254 255 258 262 265 268 269 269 268 267 266 264 261 257 254 253 252 251 250 250 251 254 258 259 260 262 264 264 263 263 263 264 264 265 267 268 269 269 269 270 271 272 272 272 271 270 269 269
252 253 254 256 258 259 258 258 258 258 258 258 258 258 258 258 259 261 263 266 267 268 267 267 266 265 264 262 260 258 257 257 255 254 253 251 252 255 258 260 262 264 264 264 264 265 265 265 267 268 268 269 269 269 270 272 272 272 272 272 270 270 269
254 256 258 260 261 261 260 259 259 258 258 258 258 259 259 260 261 262 263 264 263 264 266 267 266 265 264 263 262 260 259 259 259 259 259 257 255 255 258 260 261 262 263 261 262 265 268 271 272 271 270 268 268 268 270 270 270 271 271 271 271 271 271
255 256 257 259 260 260 260 260 260 260 260 260 259 260 260 260 260 261 262 262 262 263 265 265 266 265 265 265 264 262 261 261 261 262 262 262 261 261 261 262 261 261 262 261 261 263 266 270 272 272 271 269 268 270 270 269 268 268 268 269 271 272 272
253 256 257 259 260 261 262 262 262 261 260 260 259 259 259 259 260 261 262 263 265 266 266 266 266 265 265 265 265 264 263 263 262 262 262 262 262 262 262 262 261 261 262 263 264 264 265 267 270 272 272 271 271 271 270 267 266 266 265 268 272 275 275
Height
5782 5783 5784 5786 5788 5789 5789 5790 5790 5791 5791 5792 5792 5792 5793 5794 5795 5796 5797 5798 5799 5800 5800 5801 5801 5802 5802 5802 5803 5803 5803 5804 5805 5805 5805 5806 5806 5807 5807 5808 5809 5809 5810 5810 5810 5811 5811 5811 5811 5811 5811 5812 5812 5812 5812 5812 5813 5813 5813 5813 5814 5814 5814
5780 5781 5782 5784 5786 5787 5787 5788 5788 5788 5789 5790 5790 5791 5792 5793 5795 5796 5797 5798 5798 5799 5799 5800 5800 5800 5801 5801 5801 5802 5802 5803 5803 5803 5804 5804 5805 5805 5806 5806 5807 5807 5808 5808 5809 5809 5809 5809 5810 5810 5810 5810 5810 5811 5811 5811 5812 5812 5812 5812 5812 5812 5812
5778 5779 5780 5782 5783 5784 5785 5786 5786 5787 5787 5788 5789 5790 5791 5793 5794 5795 5796 5797 5797 5798 5798 5798 5798 5799 5799 5799 5800 5800 5801 5801 5801 5802 5802 5803 5804 5804 5804 5805 5805 5806 5806 5807 5807 5807 5808 5808 5808 5809 5809 5809 5809 5810 5810 5810 5810 5810 5810 5811 5811 5811 5811
5775 5777 5778 5779 5781 5782 5783 5784 5785 5785 5786 5787 5789 5790 5791 5792 5793 5794 5795 5796 5796 5797 5797 5797 5797 5797 5797 5798 5799 5799 5799 5800 5800 5801 5801 5802 5802 5802 5803 5803 5804 5804 5805 5805 5805 5806 5806 5806 5807 5807 5808 5808 5808 5808 5808 5809 5809 5809 5809 5810 5810 5810 5809
5772 5774 5776 5777 5779 5780 5781 5782 5783 5784 5785 5786 5788 5789 5790 5791 5791 5792 5793 5794 5794 5795 5795 5796 5796 5796 5796 5797 5797 5798 5798 5799 5799 5799 5800 5800 5801 5801 5801 5801 5802 5803 5803 5804 5804 5804 5805 5805 5805 5806 5806 5806 5806 5806 5807 5807 5807 5808 5808 5808 5808 5808 5808
5770 5772 5773 5774 5776 5778 5779 5781 5782 5783 5784 5785 5787 5788 5789 5789 5790 5791 5791 5792 5793 5793 5794 5794 5794 5794 5794 5795 5796 5796 5797 5797 5797 5798 5798 5799 5799 5799 5799 5800 5800 5801 5801 5802 5803 5803 5803 5803 5804 5804 5804 5804 5804 5804 5805 5805 5806 5806 5806 5806 5806 5806 5806
5768 5770 5771 5773 5774 5775 5777 5779 5780 5781 5782 5784 5786 5787 5787 5787 5788 5789 5790 5791 5791 5792 5792 5792 5792 5792 5793 5793 5794 5794 5795 5796 5796 5796 5796 5797 5797 5797 5798 5798 5798 5799 5800 5800 5801 5801 5802 5802 5802 5802 5802 5802 5803 5803 5803 5803 5804 5804 5804 5805 5805 5804 5804
5767 5768 5770 5772 5773 5774 5776 5777 5779 5780 5781 5783 5784 5785 5786 5786 5787 5788 5789 5789 5789 5790 5790 5790 5790 5791 5791 5791 5792 5792 5793 5794 5794 5794 5795 5795 5795 5795 5796 5796 5797 5797 5797 5798 5799 5799 5800 5800 5800 5800 5800 5801 5801 5801 5801 5802 5802 5802 5803 5803 5803 5803 5802
5767 5768 5770 5771 5772 5774 5775 5776 5778 5779 5780 5782 5783 5784 5785 5786 5786 5787 5787 5787 5787 5788 5788 5788 5788 5789 5789 5789 5790 5790 5791 5791 5792 5792 5793 5793 5793 5794 5794 5794 5795 5795 5796 5796 5797 5797 5798 5798 5798 5798 5798 5798 5799 5799 5800 5800 5800 5800 5801 5801 5801 5801 5800
5766 5768 5769 5770 5772 5773 5774 5775 5776 5778 5779 5781 5782 5783 5784 5784 5785 5785 5785 5785 5785 5786 5786 5786 5786 5787 5787 5788 5788 5788 5789 5789 5790 5791 5791 5791 5792 5792 5792 5793 5793 5793 5794 5794 5795 5795 5795 5795 5795 5795 5796 5796 5797 5797 5797 5798 5798 5798 5799 5799 5799 5799 5798
5766 5767 5768 5769 5770 5771 5772 5774 5775 5777 5778 5779 5781 5781 5782 5782 5782 5782 5782 5783 5783 5784 5784 5784 5784 5784 5785 5786 5786 5786 5787 5788 5788 5789 5789 5790 5790 5791 5791 5791 5791 5792 5792 5792 5793 5793 5793 5793 5793 5793 5793 5794 5794 5795 5795 5796 5796 5796 5796 5797 5797 5796 5796
5764 5765 5766 5768 5769 5770 5771 5773 5774 5776 5777 5778 5779 5780 5780 5780 5780 5780 5780 5781 5781 5781 5782 5782 5782 5782 5783 5784 5784 5785 5785 5785 5786 5787 5787 5788 5789 5789 5789 5789 5790 5790 5790 5791 5791 5791 5791 5791 5790 5791 5791 5791 5792 5792 5793 5793 5794 5794 5794 5794 5794 5794 5794
5762 5763 5764 5766 5768 5769 5770 5771 5772 5774 5775 5776 5777 5777 5778 5778 5778 5778 5779 5779 5779 5780 5780 5780 5780 5781 5781 5781 5782 5782 5782 5783 5784 5784 5785 5786 5787 5787 5787 5788 5788 5788 5788 5789 5789 5789 5789 5788 5788 5788 5789 5789 5790 5790 5791 5791 5791 5792 5792 5792 5792 5792 5792
5759 5761 5762 5764 5766 5767 5768 5769 5770 5771 5772 5773 5774 5775 5775 5776 5776 5776 5777 5777 5778 5778 5778 5778 5779 5779 5779 5779 5779 5779 5779 5780 5781 5782 5783 5783 5784 5785 5785 5785 5785 5786 5786 5786 5786 5786 5786 5786 5786 5786 5786 5787 5787 5788 5788 5789 5789 5790 5790 5790 5790 5790 5790
5757 5758 5760 5762 5763 5765 5766 5767 5768 5768 5769 5771 5772 5772 5773 5773 5773 5774 5774 5775 5775 5776 5776 5776 5777 5777 5777 5777 5776 5776 5777 5777 5778 5779 5780 5781 5781 5782 5782 5782 5783 5783 5783 5784 5784 5784 5784 5784 5784 5784 5784 5784 5785 5785 5786 5786 5787 5787 5788 5788 5788 5788 5788
5755 5756 5758 5759 5761 5762 5764 5764 5765 5766 5767 5768 5769 5770 5770 5771 5771 5772 5772 5772 5773 5773 5774 5774 5775 5775 5775 5775 5775 5774 5774 5775 5776 5777 5777 5778 5779 5779 5779 5779 5779 5780 5780 5781 5781 5781 5781 5781 5781 5782 5782 5782 5782 5783 5783 5784 5784 5785 5785 5785 5785 5785 5785
5753 5754 5755 5757 5758 5760 5761 5762 5763 5764 5765 5767 5767 5768 5769 5769 5769 5769 5770 5770 5771 5771 5772 5772 5773 5773 5773 5773 5773 5773 5773 5773 5773 5774 5774 5775 5776 5776 5777 5777 5777 5777 5777 5778 5778 5778 5779 5779 5779 5779 5779 5780 5780 5780 5781 5781 5782 5782 5782 5782 5782 5783 5783
5751 5751 5752 5754 5756 5757 5758 5760 5761 5762 5763 5764 5765 5766 5766 5767 5767 5767 5767 5768 5768 5769 5769 5769 5770 5770 5770 5771 5771 5771 5771 5770 5770 5771 5771 5772 5773 5773 5774 5774 5774 5774 5774 5775 5775 5776 5776 5776 5776 5776 5777 5777 5778 5778 5779 5779 5779 5780 5780 5780 5780 5780 5780
5748 5749 5750 5751 5753 5754 5756 5757 5758 5759 5761 5762 5763 5763 5764 5764 5764 5764 5765 5765 5765 5766 5766 5766 5766 5767 5767 5768 5768 5768 5768 5768 5768 5768 5769 5769 5770 5770 5770 5771 5771 5771 5772 5772 5772 5773 5773 5773 5774 5774 5775 5775 5776 5776 5777 5777 5777 5778 5778 5778 5778 5778 5778
5745 5746 5747 5749 5750 5752 5753 5754 5756 5757 5758 5759 5760 5760 5761 5761 5761 5762 5762 5762 5763 5763 5763 5763 5763 5763 5764 5764 5765 5765 5766 5766 5766 5766 5766 5767 5767 5768 5768 5768 5768 5769 5769 5770 5770 5770 5770 5771 5771 5771 5772 5773 5773 5774 5774 5775 5775 5775 5775 5775 5775 5775 5775
5742 5742 5744 5746 5747 5749 5750 5751 5752 5754 5754 5755 5756 5757 5758 5758 5759 5759 5760 5760 5760 5760 5759 5759 5759 5760 5760 5760 5761 5761 5762 5763 5763 5763 5763 5764 5765 5765 5766 5766 5766 5767 5767 5767 5768 5768 5768 5768 5768 5769 5769 5770 5770 5771 5771 5772 5772 5772 5772 5772 5772 5773 5773
5740 5740 5741 5743 5745 5746 5747 5748 5749 5750 5751 5752 5753 5754 5755 5756 5757 5757 5757 5757 5757 5757 5756 5756 5756 5756 5756 5757 5757 5758 5759 5759 5759 5760 5760 5761 5762 5762 5763 5764 5764 5765 5765 5765 5765 5766 5766 5766 5766 5766 5766 5767 5767 5768 5768 5769 5769 5769 5769 5769 5769 5769 5769
5738 5739 5740 5740 5741 5743 5744 5745 5746 5747 5748 5749 5750 5751 5753 5754 5754 5754 5755 5755 5754 5754 5753 5753 5753 5753 5753 5754 5754 5755 5756 5756 5756 5757 5757 5757 5758 5759 5760 5761 5762 5763 5763 5763 5763 5763 5763 5763 5764 5764 5764 5764 5764 5765 5765 5765 5765 5765 5765 5765 5765 5765 5766
5736 5738 5738 5738 5738 5739 5740 5741 5743 5744 5745 5746 5747 5749 5750 5751 5752 5752 5752 5752 5752 5751 5751 5751 5751 5751 5751 5751 5752 5752 5753 5753 5753 5754 5754 5754 5755 5756 5757 5759 5759 5760 5760 5761 5761 5760 5761 5761 5761 5761 5761 5762 5762 5762 5762 5762 5761 5761 5761 5761 5761 5761 5761
5734 5735 5736 5736 5736 5735 5736 5738 5740 5741 5743 5744 5744 5745 5747 5748 5749 5749 5750 5750 5749 5749 5749 5749 5749 5749 5749 5750 5750 5750 5750 5750 5751 5751 5751 5752 5752 5753 5754 5755 5756 5757 5757 5758 5758 5758 5758 5758 5758 5758 5759 5759 5759 5759 5759 5758 5758 5758 5758 5758 5758 5757 5757
5732 5733 5734 5734 5734 5733 5733 5736 5737 5738 5740 5741 5742 5743 5744 5745 5746 5746 5746 5746 5747 5746 5746 5746 5747 5747 5747 5748 5748 5748 5748 5748 5749 5749 5749 5749 5750 5750 5751 5752 5753 5753 5754 5755 5755 5755 5755 5755 5756 5756 5756 5756 5756 5755 5755 5755 5755 5755 5755 5755 5754 5754 5753
5730 5731 5731 5732 5732 5732 5732 5733 5735 5736 5737 5738 5739 5740 5741 5741 5742 5743 5743 5744 5744 5744 5744 5744 5745 5745 5745 5745 5745 5746 5746 5746 5746 5747 5748 5748 5747 5747 5748 5748 5749 5750 5750 5751 5752 5752 5752 5753 5753 5752 5752 5752 5752 5752 5751 5751 5751 5751 5751 5751 5750 5750 5750
5727 5728 5728 5729 5730 5730 5731 5731 5733 5734 5735 5736 5737 5737 5738 5739 5739 5740 5741 5741 5741 5741 5742 5742 5742 5742 5742 5742 5743 5743 5743 5743 5744 5744 5745 5745 5745 5745 5745 5745 5746 5746 5747 5747 5748 5748 5749 5749 5749 5749 5748 5748 5748 5748 5747 5747 5747 5747 5747 5747 5746 5746 5745
5724 5725 5725 5726 5727 5728 5728 5729 5731 5732 5733 5733 5734 5735 5735 5736 5737 5737 5738 5738 5738 5738 5738 5739 5739 5739 5739 5739 5740 5740 5740 5740 5741 5741 5741 5741 5742 5742 5742 5742 5742 5743 5743 5743 5744 5744 5745 5745 5745 5745 5744 5744 5744 5743 5743 5743 5743 5742 5742 5742 5741 5741 5740
5721 5722 5723 5724 5724 5725 5726 5727 5728 5729 5730 5731 5732 5732 5733 5733 5734 5735 5735 5735 5735 5735 5735 5735 5735 5736 5736 5736 5736 5737 5737 5737 5737 5737 5737 5738 5738 5738 5738 5738 5738 5738 5739 5739 5740 5740 5740 5740 5740 5740 5740 5739 5739 5738 5738 5738 5737 5737 5737 5736 5736 5735 5735
5717 5719 5720 5721 5722 5723 5723 5724 5725 5726 5727 5728 5728 5729 5730 5730 5731 5731 5731 5731 5731 5731 5731 5731 5731 5731 5731 5731 5732 5732 5732 5732 5733 5733 5733 5734 5734 5734 5734 5733 5734 5734 5735 5735 5735 5735 5735 5735 5735 5735 5734 5734 5733 5733 5733 5733 5732 5732 5732 5731 5730 5730 5730
5714 5715 5717 5718 5719 5720 5720 5721 5722 5723 5724 5724 5725 5726 5726 5727 5727 5727 5727 5728 5728 5728 5728 5727 5727 5727 5727 5727 5727 5727 5727 5727 5727 5728 5728 5728 5728 5728 5728 5729 5729 5729 5730 5731 5731 5731 5730 5730 5729 5728 5728 5728 5727 5727 5727 5727 5727 5726 5726 5725 5725 5724 5724
5712 5713 5714 5715 5716 5716 5717 5718 5719 5719 5720 5720 5721 5721 5722 5723 5723 5723 5724 5724 5724 5724 5723 5723 5723 5722 5722 5722 5722 5722 5722 5722 5722 5722 5722 5722 5722 5722 5723 5723 5723 5724 5725 5726 5726 5725 5724 5724 5722 5721 5721 5722 5721 5721 5720 5720 5719 5719 5718 5718 5718 5717 5717
5708 5709 5710 5711 5712 5713 5713 5714 5714 5714 5715 5715 5716 5716 5717 5718 5718 5718 5719 5720 5720 5718 5718 5718 5718 5717 5717 5717 5717 5717 5717 5717 5717 5717 5716 5716 5716 5716 5717 5717 5717 5718 5720 5720 5719 5718 5717 5716 5716 5715 5715 5714 5714 5713 5713 5712 5712 5711 5711 5710 5710 5710 5709
5705 5705 5706 5706 5707 5707 5708 5708 5708 5709 5709 5709 5710 5710 5711 5711 5712 5712 5713 5714 5714 5713 5712 5713 5712 5712 5711 5711 5711 5712 5711 5711 5712 5712 5711 5710 5710 5710 5711 5711 5711 5712 5713 5713 5713 5711 5709 5709 5708 5707 5707 5706 5706 5705 5705 5704 5704 5704 5703 5703 5703 5702 5702
5700 5700 5700 5701 5701 5702 5702 5703 5703 5703 5703 5704 5704 5704 5705 5705 5705 5706 5707 5707 5707 5707 5707 5707 5706 5706 5706 5706 5706 5705 5705 5705 5706 5706 5705 5704 5704 5704 5705 5705 5705 5705 5705 5705 5705 5704 5702 5702 5701 5699 5699 5699 5698 5697 5697 5697 5697 5696 5696 5695 5695 5695 5694
5694 5695 5695 5696 5696 5697 5697 5697 5698 5698 5698 5698 5698 5699 5699 5699 5699 5700 5700 5701 5701 5701 5701 5700 5700 5700 5700 5700 5699 5699 5698 5698 5698 5699 5698 5698 5697 5697 5698 5698 5698 5698 5697 5696 5696 5696 5695 5695 5694 5692 5691 5691 5690 5690 5690 5690 5689 5689 5688 5688 5688 5688 5687